| time (UTC) | temp F | wind direction | speed knots | gust knots | rain 1hr in | rain 24hr in | rain mn in | humidity % | barometer mb |
| 20260903011402 | 86 | 210 | 0.0 | 5.2 | 0.00 | 0.00 | 0.00 | 1015.6 | |
| 20260903010924 | 86 | 151 | 0.0 | 5.2 | 0.00 | 0.00 | 0.00 | 1015.6 | |
| 20260903010402 | 86 | 174 | 0.0 | 1.7 | 0.00 | 0.00 | 0.00 | 1015.6 | |
| 20260903005903 | 86 | 195 | 0.0 | 2.6 | 0.00 | 0.00 | 0.00 | 1014.9 | |
| 20260903005402 | 86 | 208 | 0.0 | 2.6 | 0.00 | 0.00 | 0.00 | 1015.3 | |
| 20260903004924 | 86 | 195 | 0.0 | 4.3 | 0.00 | 0.00 | 0.00 | 1015.3 | |
| 20260903004403 | 87 | 198 | 0.0 | 4.3 | 0.00 | 0.00 | 0.00 | 1015.6 | |
| 20260903003903 | 87 | 224 | 0.0 | 5.2 | 0.00 | 0.00 | 0.00 | 1016.0 | |
| 20260903003403 | 87 | 237 | 0.0 | 5.2 | 0.00 | 0.00 | 0.00 | 1015.6 | |
| 20260903002903 | 87 | 254 | 0.0 | 5.2 | 0.00 | 0.00 | 0.00 | 1015.3 | |
| 20260903002424 | 87 | 275 | 0.9 | 5.2 | 0.00 | 0.00 | 0.00 | 1015.3 | |
| 20260903001903 | 87 | 195 | 0.0 | 3.5 | 0.00 | 0.00 | 0.00 | 1014.9 | |
| 20260903001403 | 87 | 260 | 0.9 | 5.2 | 0.00 | 0.00 | 0.00 | 1014.9 | |
| 20260903000902 | 88 | 353 | 0.0 | 5.2 | 0.00 | 0.00 | 0.00 | 1016.0 | |
| 20260903000424 | 88 | 205 | 0.0 | 5.2 | 0.00 | 0.00 | 0.00 | 1016.3 | |
| 20260902235924 | 88 | 186 | 0.0 | 5.2 | 0.00 | 0.00 | 0.00 | 1016.0 | |
| 20260902235403 | 89 | 194 | 0.0 | 4.3 | 0.00 | 0.00 | 0.00 | 1015.3 | |
| 20260902234903 | 89 | 228 | 0.9 | 6.1 | 0.00 | 0.00 | 0.00 | 1015.3 | |
| 20260902234403 | 89 | 224 | 1.7 | 6.1 | 0.00 | 0.00 | 0.00 | 1015.6 | |
| 20260902233902 | 90 | 199 | 0.0 | 5.2 | 0.00 | 0.00 | 0.00 | 1015.3 | |
| 20260902233403 | 90 | 218 | 0.9 | 4.3 | 0.00 | 0.00 | 0.00 | 1015.6 | |
| 20260902232903 | 90 | 225 | 0.9 | 4.3 | 0.00 | 0.00 | 0.00 | 1015.6 | |
| 20260902232403 | 90 | 249 | 0.0 | 7.0 | 0.00 | 0.00 | 0.00 | 1015.6 | |
| 20260902231903 | 90 | 267 | 2.6 | 7.0 | 0.00 | 0.00 | 0.00 | 1015.6 | |
| 20260902231402 | 91 | 232 | 2.6 | 5.2 | 0.00 | 0.00 | 0.00 | 1015.6 | |
| 20260902230903 | 91 | 227 | 1.7 | 5.2 | 0.00 | 0.00 | 0.00 | 1015.6 | |
| 20260902230403 | 91 | 233 | 1.7 | 7.8 | 0.00 | 0.00 | 0.00 | 1016.0 | |
| 20260902225903 | 92 | 252 | 2.6 | 7.8 | 0.00 | 0.00 | 0.00 | 1015.3 | |
| 20260902225402 | 94 | 193 | 0.9 | 4.3 | 0.00 | 0.00 | 0.00 | 1016.0 | |
| 20260902224924 | 94 | 234 | 2.6 | 7.0 | 0.00 | 0.00 | 0.00 | 1016.0 | |
| 20260902224403 | 95 | 248 | 2.6 | 7.0 | 0.00 | 0.00 | 0.00 | 1016.0 | |
| 20260902223903 | 95 | 278 | 2.6 | 7.0 | 0.00 | 0.00 | 0.00 | 1015.6 | |
| 20260902223424 | 95 | 206 | 1.7 | 7.8 | 0.00 | 0.00 | 0.00 | 1015.3 | |
| 20260902222903 | 95 | 275 | 1.7 | 7.8 | 0.00 | 0.00 | 0.00 | 1015.3 | |
| 20260902222403 | 95 | 257 | 1.7 | 7.8 | 0.00 | 0.00 | 0.00 | 1015.3 | |
| 20260902221903 | 95 | 189 | 1.7 | 10.4 | 0.00 | 0.00 | 0.00 | 1015.6 | |
| 20260902221424 | 95 | 271 | 3.5 | 10.4 | 0.00 | 0.00 | 0.00 | 1015.3 | |
| 20260902220903 | 95 | 191 | 1.7 | 7.8 | 0.00 | 0.00 | 0.00 | 1014.9 | |
| 20260902220424 | 95 | 254 | 2.6 | 7.8 | 0.00 | 0.00 | 0.00 | 1015.3 | |
| 20260902215903 | 96 | 242 | 2.6 | 7.8 | 0.00 | 0.00 | 0.00 | 1014.9 | |
| 20260902215424 | 96 | 227 | 2.6 | 6.1 | 0.00 | 0.00 | 0.00 | 1015.3 | |
| 20260902214904 | 95 | 197 | 1.7 | 7.8 | 0.00 | 0.00 | 0.00 | 1016.0 | |
| 20260902214404 | 95 | 192 | 2.6 | 10.4 | 0.00 | 0.00 | 0.00 | 1015.6 | |
| 20260902213904 | 95 | 224 | 2.6 | 11.3 | 0.00 | 0.00 | 0.00 | 1015.3 | |
| 20260902213402 | 95 | 271 | 3.5 | 11.3 | 0.00 | 0.00 | 0.00 | 1015.6 | |
| 20260902212403 | 95 | 249 | 2.6 | 9.6 | 0.00 | 0.00 | 0.00 | 1015.6 | |
| 20260902211903 | 95 | 274 | 2.6 | 11.3 | 0.00 | 0.00 | 0.00 | 1015.6 | |
| 20260902211425 | 95 | 277 | 5.2 | 11.3 | 0.00 | 0.00 | 0.00 | 1015.3 | |
| 20260902210903 | 95 | 255 | 2.6 | 8.7 | 0.00 | 0.00 | 0.00 | 1014.9 | |
| 20260902210403 | 95 | 293 | 1.7 | 9.6 | 0.00 | 0.00 | 0.00 | 1014.9 | |
| 20260902205903 | 95 | 281 | 1.7 | 10.4 | 0.00 | 0.00 | 0.00 | 1015.3 | |
| 20260902205403 | 95 | 284 | 6.1 | 10.4 | 0.00 | 0.00 | 0.00 | 1015.6 | |
| 20260902204924 | 95 | 271 | 3.5 | 9.6 | 0.00 | 0.00 | 0.00 | 1015.3 | |
| 20260902204403 | 94 | 194 | 2.6 | 7.8 | 0.00 | 0.00 | 0.00 | 1015.3 | |
| 20260902203903 | 94 | 265 | 3.5 | 7.0 | 0.00 | 0.00 | 0.00 | 1016.0 | |
| 20260902203403 | 94 | 265 | 1.7 | 6.1 | 0.00 | 0.00 | 0.00 | 1016.0 | |
| 20260902202903 | 94 | 260 | 3.5 | 10.4 | 0.00 | 0.00 | 0.00 | 1015.6 | |
| 20260902202403 | 94 | 258 | 3.5 | 10.4 | 0.00 | 0.00 | 0.00 | 1016.0 | |
| 20260902201903 | 93 | 258 | 3.5 | 8.7 | 0.00 | 0.00 | 0.00 | 1016.0 | |
| 20260902201403 | 94 | 272 | 3.5 | 10.4 | 0.00 | 0.00 | 0.00 | 1015.6 | |
| 20260902200903 | 94 | 281 | 4.3 | 10.4 | 0.00 | 0.00 | 0.00 | 1016.0 | |
| 20260902200403 | 93 | 279 | 5.2 | 10.4 | 0.00 | 0.00 | 0.00 | 1015.6 | |
| 20260902195923 | 93 | 281 | 1.7 | 9.6 | 0.00 | 0.00 | 0.00 | 1015.6 | |
| 20260902195403 | 94 | 297 | 3.5 | 7.8 | 0.00 | 0.00 | 0.00 | 1016.0 | |
| 20260902194902 | 93 | 199 | 1.7 | 8.7 | 0.00 | 0.00 | 0.00 | 1015.6 | |
| 20260902194403 | 94 | 218 | 1.7 | 8.7 | 0.00 | 0.00 | 0.00 | 1016.3 | |
| 20260902193903 | 94 | 260 | 3.5 | 9.6 | 0.00 | 0.00 | 0.00 | 1016.0 | |
| 20260902193403 | 93 | 275 | 3.5 | 9.6 | 0.00 | 0.00 | 0.00 | 1016.0 | |
| 20260902192903 | 94 | 287 | 3.5 | 10.4 | 0.00 | 0.00 | 0.00 | 1016.3 | |
| 20260902192402 | 94 | 285 | 3.5 | 10.4 | 0.00 | 0.00 | 0.00 | 1016.0 | |
| 20260902191903 | 93 | 281 | 3.5 | 12.2 | 0.00 | 0.00 | 0.00 | 1016.0 | |
| 20260902191402 | 93 | 245 | 3.5 | 12.2 | 0.00 | 0.00 | 0.00 | 1016.3 | |
| 20260902190903 | 93 | 275 | 3.5 | 8.7 | 0.00 | 0.00 | 0.00 | 1015.6 | |
| 20260902190403 | 93 | 198 | 3.5 | 6.1 | 0.00 | 0.00 | 0.00 | 1016.0 | |
| 20260902185903 | 94 | 212 | 1.7 | 12.2 | 0.00 | 0.00 | 0.00 | 1016.0 | |
| 20260902185424 | 93 | 271 | 3.5 | 12.2 | 0.00 | 0.00 | 0.00 | 1017.0 | |
| 20260902184902 | 93 | 258 | 2.6 | 7.8 | 0.00 | 0.00 | 0.00 | 1016.6 | |
| 20260902184403 | 93 | 288 | 1.7 | 10.4 | 0.00 | 0.00 | 0.00 | 1016.6 | |
| 20260902183903 | 92 | 244 | 2.6 | 10.4 | 0.00 | 0.00 | 0.00 | 1016.3 | |
| 20260902183445 | 92 | 225 | 1.7 | 7.8 | 0.00 | 0.00 | 0.00 | 1016.6 | |
| 20260902182903 | 92 | 281 | 3.5 | 7.8 | 0.00 | 0.00 | 0.00 | 1016.6 | |
| 20260902182424 | 92 | 257 | 2.6 | 8.7 | 0.00 | 0.00 | 0.00 | 1017.0 | |
| 20260902181903 | 93 | 278 | 3.5 | 8.7 | 0.00 | 0.00 | 0.00 | 1017.0 | |
| 20260902181403 | 93 | 263 | 4.3 | 8.7 | 0.00 | 0.00 | 0.00 | 1016.6 | |
| 20260902180903 | 93 | 286 | 2.6 | 6.1 | 0.00 | 0.00 | 0.00 | 1016.6 | |
| 20260902180403 | 92 | 233 | 2.6 | 8.7 | 0.00 | 0.00 | 0.00 | 1016.3 | |
| 20260902175903 | 91 | 280 | 4.3 | 8.7 | 0.00 | 0.00 | 0.00 | 1016.6 | |
| 20260902175425 | 92 | 257 | 2.6 | 6.1 | 0.00 | 0.00 | 0.00 | 1016.6 | |
| 20260902174903 | 92 | 194 | 1.7 | 6.1 | 0.00 | 0.00 | 0.00 | 1016.3 | |
| 20260902174403 | 91 | 267 | 2.6 | 6.1 | 0.00 | 0.00 | 0.00 | 1017.0 | |
| 20260902173903 | 91 | 267 | 2.6 | 7.8 | 0.00 | 0.00 | 0.00 | 1016.6 | |
| 20260902173403 | 91 | 293 | 4.3 | 7.8 | 0.00 | 0.00 | 0.00 | 1017.0 | |
| 20260902172924 | 91 | 272 | 3.5 | 8.7 | 0.00 | 0.00 | 0.00 | 1017.3 | |
| 20260902172403 | 91 | 290 | 4.3 | 8.7 | 0.00 | 0.00 | 0.00 | 1017.3 | |
| 20260902171902 | 91 | 256 | 1.7 | 11.3 | 0.00 | 0.00 | 0.00 | 1017.3 | |
| 20260902171424 | 91 | 295 | 2.6 | 11.3 | 0.00 | 0.00 | 0.00 | 1017.0 | |
| 20260902170902 | 91 | 295 | 6.1 | 10.4 | 0.00 | 0.00 | 0.00 | 1017.3 | |
| 20260902170403 | 91 | 271 | 4.3 | 10.4 | 0.00 | 0.00 | 0.00 | 1017.6 | |
| 20260902165903 | 91 | 188 | 1.7 | 7.8 | 0.00 | 0.00 | 0.00 | 1017.6 | |
| 20260902165402 | 91 | 199 | 0.9 | 9.6 | 0.00 | 0.00 | 0.00 | 1017.0 | |
| 20260902164903 | 90 | 278 | 2.6 | 9.6 | 0.00 | 0.00 | 0.00 | 1017.3 | |
| 20260902164402 | 91 | 287 | 3.5 | 7.0 | 0.00 | 0.00 | 0.00 | 1018.0 | |
| 20260902163903 | 91 | 262 | 1.7 | 7.8 | 0.00 | 0.00 | 0.00 | 1017.6 | |
| 20260902163403 | 90 | 259 | 2.6 | 7.8 | 0.00 | 0.00 | 0.00 | 1018.0 | |
| 20260902162903 | 90 | 255 | 2.6 | 7.8 | 0.00 | 0.00 | 0.00 | 1017.6 | |
| 20260902162445 | 90 | 262 | 1.7 | 7.8 | 0.00 | 0.00 | 0.00 | 1017.6 | |
| 20260902161924 | 89 | 285 | 3.5 | 8.7 | 0.00 | 0.00 | 0.00 | 1018.0 | |
| 20260902161403 | 90 | 291 | 3.5 | 8.7 | 0.00 | 0.00 | 0.00 | 1017.6 | |
| 20260902160903 | 89 | 291 | 5.2 | 7.8 | 0.00 | 0.00 | 0.00 | 1017.6 | |
| 20260902160403 | 89 | 279 | 4.3 | 8.7 | 0.00 | 0.00 | 0.00 | 1017.6 | |
| 20260902155903 | 88 | 271 | 2.6 | 8.7 | 0.00 | 0.00 | 0.00 | 1017.6 | |
| 20260902155402 | 88 | 233 | 2.6 | 10.4 | 0.00 | 0.00 | 0.00 | 1017.3 | |
| 20260902154903 | 88 | 261 | 3.5 | 10.4 | 0.00 | 0.00 | 0.00 | 1017.3 | |
| 20260902154402 | 88 | 303 | 3.5 | 6.1 | 0.00 | 0.00 | 0.00 | 1018.0 | |
| 20260902153903 | 88 | 263 | 2.6 | 6.1 | 0.00 | 0.00 | 0.00 | 1017.6 | |
| 20260902153403 | 88 | 183 | 2.6 | 5.2 | 0.00 | 0.00 | 0.00 | 1018.0 | |
| 20260902152903 | 88 | 175 | 0.0 | 7.0 | 0.00 | 0.00 | 0.00 | 1018.0 | |
| 20260902152403 | 87 | 219 | 0.9 | 7.0 | 0.00 | 0.00 | 0.00 | 1018.0 | |
| 20260902151904 | 87 | 233 | 0.9 | 6.1 | 0.00 | 0.00 | 0.00 | 1018.0 | |
| 20260902151403 | 87 | 279 | 1.7 | 6.1 | 0.00 | 0.00 | 0.00 | 1017.6 | |
| 20260902150903 | 87 | 202 | 1.7 | 4.3 | 0.00 | 0.00 | 0.00 | 1018.0 | |
| 20260902150403 | 86 | 201 | 1.7 | 7.8 | 0.00 | 0.00 | 0.00 | 1017.6 | |
| 20260902145924 | 86 | 276 | 2.6 | 7.8 | 0.00 | 0.00 | 0.00 | 1017.6 | |
| 20260902145403 | 86 | 202 | 0.9 | 6.1 | 0.00 | 0.00 | 0.00 | 1018.0 | |
| 20260902144903 | 86 | 215 | 1.7 | 6.1 | 0.00 | 0.00 | 0.00 | 1018.0 | |
| 20260902144403 | 86 | 282 | 2.6 | 6.1 | 0.00 | 0.00 | 0.00 | 1018.0 | |
| 20260902143902 | 85 | 280 | 2.6 | 5.2 | 0.00 | 0.00 | 0.00 | 1017.6 | |
| 20260902143403 | 85 | 281 | 2.6 | 7.0 | 0.00 | 0.00 | 0.00 | 1018.0 | |
| 20260902142904 | 85 | 289 | 0.9 | 7.0 | 0.00 | 0.00 | 0.00 | 1017.6 | |
| 20260902142403 | 84 | 288 | 2.6 | 7.0 | 0.00 | 0.00 | 0.00 | 1017.6 | |
| 20260902141924 | 84 | 292 | 3.5 | 7.0 | 0.00 | 0.00 | 0.00 | 1018.0 | |
| 20260902141402 | 83 | 272 | 4.3 | 7.8 | 0.00 | 0.00 | 0.00 | 1018.3 | |
| 20260902140903 | 83 | 290 | 5.2 | 7.8 | 0.00 | 0.00 | 0.00 | 1018.3 | |
| 20260902140402 | 83 | 279 | 3.5 | 7.8 | 0.00 | 0.00 | 0.00 | 1018.0 | |
| 20260902135903 | 83 | 295 | 4.3 | 8.7 | 0.00 | 0.00 | 0.00 | 1018.0 | |
| 20260902135404 | 82 | 290 | 4.3 | 8.7 | 0.00 | 0.00 | 0.00 | 1017.3 | |
| 20260902134903 | 83 | 249 | 2.6 | 7.8 | 0.00 | 0.00 | 0.00 | 1017.6 | |
| 20260902134424 | 82 | 258 | 1.7 | 8.7 | 0.00 | 0.00 | 0.00 | 1018.0 | |
| 20260902133902 | 83 | 291 | 3.5 | 8.7 | 0.00 | 0.00 | 0.00 | 1018.0 | |
| 20260902133403 | 82 | 285 | 1.7 | 7.8 | 0.00 | 0.00 | 0.00 | 1017.6 | |
| 20260902132904 | 82 | 281 | 2.6 | 7.8 | 0.00 | 0.00 | 0.00 | 1018.0 | |
| 20260902132403 | 82 | 134 | 0.0 | 9.6 | 0.00 | 0.00 | 0.00 | 1018.0 | |
| 20260902131925 | 82 | 286 | 0.9 | 9.6 | 0.00 | 0.00 | 0.00 | 1018.0 | |
| 20260902131402 | 82 | 263 | 2.6 | 7.8 | 0.00 | 0.00 | 0.00 | 1017.6 | |
| 20260902130924 | 82 | 272 | 2.6 | 7.8 | 0.00 | 0.00 | 0.00 | 1017.6 | |
| 20260902130403 | 82 | 223 | 1.7 | 6.1 | 0.00 | 0.00 | 0.00 | 1017.6 | |
| 20260902125903 | 81 | 231 | 1.7 | 6.1 | 0.00 | 0.00 | 0.00 | 1018.0 | |
| 20260902125403 | 81 | 234 | 0.0 | 6.1 | 0.00 | 0.00 | 0.00 | 1017.6 | |
| 20260902124903 | 80 | 262 | 2.6 | 6.1 | 0.00 | 0.00 | 0.00 | 1018.0 | |
| 20260902124403 | 80 | 276 | 0.9 | 4.3 | 0.00 | 0.00 | 0.00 | 1017.6 | |
| 20260902123903 | 80 | 270 | 0.0 | 5.2 | 0.00 | 0.00 | 0.00 | 1017.3 | |
| 20260902123403 | 80 | 219 | 1.7 | 5.2 | 0.00 | 0.00 | 0.00 | 1017.3 | |
| 20260902122902 | 79 | 257 | 1.7 | 4.3 | 0.00 | 0.00 | 0.00 | 1017.0 | |
| 20260902122403 | 79 | 211 | 0.0 | 5.2 | 0.00 | 0.00 | 0.00 | 1017.0 | |
| 20260902121902 | 79 | 262 | 0.9 | 5.2 | 0.00 | 0.00 | 0.00 | 1017.3 | |
| 20260902121403 | 79 | 236 | 1.7 | 2.6 | 0.00 | 0.00 | 0.00 | 1017.6 | |
| 20260902120924 | 78 | 230 | 0.9 | 4.3 | 0.00 | 0.00 | 0.00 | 1017.6 | |
| 20260902120403 | 78 | 213 | 0.0 | 4.3 | 0.00 | 0.00 | 0.00 | 1017.6 | |
| 20260902115903 | 78 | 205 | 0.0 | 1.7 | 0.00 | 0.00 | 0.00 | 1017.0 | |
| 20260902115403 | 78 | 175 | 0.0 | 1.7 | 0.00 | 0.00 | 0.00 | 1017.0 | |
| 20260902114903 | 77 | 195 | 0.0 | 1.7 | 0.00 | 0.00 | 0.00 | 1016.6 | |
| 20260902114403 | 77 | 201 | 0.9 | 2.6 | 0.00 | 0.00 | 0.00 | 1016.6 | |
| 20260902113903 | 77 | 215 | 0.0 | 5.2 | 0.00 | 0.00 | 0.00 | 1016.6 | |
| 20260902112403 | 77 | 209 | 0.0 | 1.7 | 0.00 | 0.00 | 0.00 | 1016.6 | |
| 20260902111903 | 77 | 199 | 0.0 | 1.7 | 0.00 | 0.00 | 0.00 | 1016.6 | |
| 20260902111403 | 77 | 192 | 0.0 | 1.7 | 0.00 | 0.00 | 0.00 | 1016.6 | |
| 20260902110902 | 77 | 183 | 0.0 | 3.5 | 0.00 | 0.00 | 0.00 | 1016.6 | |
| 20260902110403 | 77 | 198 | 0.0 | 3.5 | 0.00 | 0.00 | 0.00 | 1017.3 | |
| 20260902105925 | 77 | 199 | 0.9 | 2.6 | 0.00 | 0.00 | 0.00 | 1016.6 | |
| 20260902105402 | 77 | 193 | 0.0 | 4.3 | 0.00 | 0.00 | 0.00 | 1016.3 | |
| 20260902104903 | 77 | 193 | 0.0 | 4.3 | 0.00 | 0.00 | 0.00 | 1016.6 | |
| 20260902104424 | 77 | 201 | 0.0 | 4.3 | 0.00 | 0.00 | 0.00 | 1016.6 | |
| 20260902103924 | 77 | 205 | 0.0 | 4.3 | 0.00 | 0.00 | 0.00 | 1016.6 | |
| 20260902103403 | 78 | 202 | 0.0 | 2.6 | 0.00 | 0.00 | 0.00 | 1017.0 | |
| 20260902102903 | 78 | 225 | 0.0 | 2.6 | 0.00 | 0.00 | 0.00 | 1017.0 | |
| 20260902102445 | 78 | 197 | 0.0 | 1.7 | 0.00 | 0.00 | 0.00 | 1017.3 | |
| 20260902101903 | 78 | 182 | 0.0 | 2.6 | 0.00 | 0.00 | 0.00 | 1017.3 | |
| 20260902101403 | 78 | 197 | 0.0 | 2.6 | 0.00 | 0.00 | 0.00 | 1017.0 | |
| 20260902100903 | 78 | 201 | 0.0 | 4.3 | 0.00 | 0.00 | 0.00 | 1017.0 | |
| 20260902100403 | 78 | 200 | 0.0 | 4.3 | 0.00 | 0.00 | 0.00 | 1017.3 | |
| 20260902095903 | 78 | 211 | 0.0 | 3.5 | 0.00 | 0.00 | 0.00 | 1016.6 | |
| 20260902095403 | 78 | 200 | 0.0 | 5.2 | 0.00 | 0.00 | 0.00 | 1016.6 | |
| 20260902094904 | 78 | 202 | 0.0 | 5.2 | 0.00 | 0.00 | 0.00 | 1016.6 | |
| 20260902094403 | 78 | 202 | 0.0 | 4.3 | 0.00 | 0.00 | 0.00 | 1017.0 | |
| 20260902093903 | 78 | 231 | 0.0 | 4.3 | 0.00 | 0.00 | 0.00 | 1017.0 | |
| 20260902093403 | 78 | 213 | 0.0 | 2.6 | 0.00 | 0.00 | 0.00 | 1016.6 | |
| 20260902092903 | 78 | 215 | 0.0 | 5.2 | 0.00 | 0.00 | 0.00 | 1017.0 | |
| 20260902092403 | 78 | 202 | 0.0 | 5.2 | 0.00 | 0.00 | 0.00 | 1016.6 | |
| 20260902091903 | 78 | 210 | 0.0 | 5.2 | 0.00 | 0.00 | 0.00 | 1017.0 | |
| 20260902091402 | 78 | 212 | 0.0 | 5.2 | 0.00 | 0.00 | 0.00 | 1016.6 | |
| 20260902090903 | 78 | 203 | 0.0 | 5.2 | 0.00 | 0.00 | 0.00 | 1016.6 | |
| 20260902090402 | 78 | 359 | 0.0 | 5.2 | 0.00 | 0.00 | 0.00 | 1017.3 | |
| 20260902085903 | 78 | 212 | 0.0 | 5.2 | 0.00 | 0.00 | 0.00 | 1016.3 | |
| 20260902085403 | 78 | 205 | 0.0 | 5.2 | 0.00 | 0.00 | 0.00 | 1016.6 | |
| 20260902084903 | 78 | 229 | 0.0 | 5.2 | 0.00 | 0.00 | 0.00 | 1016.3 | |
| 20260902084424 | 79 | 202 | 0.0 | 5.2 | 0.00 | 0.00 | 0.00 | 1016.6 | |
| 20260902083924 | 78 | 223 | 0.0 | 5.2 | 0.00 | 0.00 | 0.00 | 1016.3 | |
| 20260902083424 | 78 | 250 | 0.9 | 5.2 | 0.00 | 0.00 | 0.00 | 1017.0 | |
| 20260902082903 | 78 | 207 | 0.0 | 1.7 | 0.00 | 0.00 | 0.00 | 1016.3 | |
| 20260902082403 | 78 | 212 | 0.0 | 5.2 | 0.00 | 0.00 | 0.00 | 1016.6 | |
| 20260902081903 | 78 | 205 | 0.0 | 5.2 | 0.00 | 0.00 | 0.00 | 1016.6 | |
| 20260902081402 | 78 | 201 | 0.0 | 3.5 | 0.00 | 0.00 | 0.00 | 1016.3 | |
| 20260902080903 | 78 | 210 | 0.0 | 5.2 | 0.00 | 0.00 | 0.00 | 1016.3 | |
| 20260902080402 | 78 | 199 | 0.0 | 5.2 | 0.00 | 0.00 | 0.00 | 1016.3 | |
| 20260902075903 | 78 | 277 | 0.0 | 5.2 | 0.00 | 0.00 | 0.00 | 1016.3 | |
| 20260902075424 | 78 | 218 | 0.0 | 5.2 | 0.00 | 0.00 | 0.00 | 1016.0 | |
| 20260902074903 | 79 | 209 | 0.0 | 5.2 | 0.00 | 0.00 | 0.00 | 1016.0 | |
| 20260902074403 | 79 | 202 | 0.0 | 5.2 | 0.00 | 0.00 | 0.00 | 1016.0 | |
| 20260902073902 | 79 | 199 | 0.0 | 5.2 | 0.00 | 0.00 | 0.00 | 1016.0 | |
| 20260902073403 | 79 | 202 | 0.0 | 5.2 | 0.00 | 0.00 | 0.00 | 1016.0 | |
| 20260902072902 | 79 | 202 | 0.0 | 5.2 | 0.00 | 0.00 | 0.00 | 1016.3 | |
| 20260902072403 | 79 | 207 | 0.0 | 5.2 | 0.00 | 0.00 | 0.00 | 1016.0 | |
| 20260902071903 | 79 | 201 | 0.0 | 5.2 | 0.00 | 0.00 | 0.00 | 1016.3 | |
| 20260902071403 | 79 | 202 | 0.0 | 5.2 | 0.00 | 0.00 | 0.00 | 1016.0 | |
| 20260902070903 | 79 | 204 | 0.0 | 5.2 | 0.00 | 0.00 | 0.00 | 1016.0 | |
| 20260902070403 | 79 | 190 | 0.0 | 5.2 | 0.00 | 0.00 | 0.00 | 1016.3 | |
| 20260902065903 | 80 | 199 | 0.0 | 5.2 | 0.00 | 0.00 | 0.00 | 1016.0 | |
| 20260902065403 | 80 | 210 | 0.9 | 5.2 | 0.00 | 0.00 | 0.00 | 1016.3 | |
| 20260902064903 | 80 | 205 | 0.0 | 5.2 | 0.00 | 0.00 | 0.00 | 1016.3 | |
| 20260902064424 | 80 | 188 | 0.0 | 5.2 | 0.00 | 0.00 | 0.00 | 1016.0 | |
| 20260902063926 | 80 | 260 | 0.0 | 5.2 | 0.00 | 0.00 | 0.00 | 1016.6 | |
| 20260902063403 | 80 | 246 | 0.0 | 5.2 | 0.00 | 0.00 | 0.00 | 1016.0 | |
| 20260902062903 | 80 | 217 | 0.0 | 5.2 | 0.00 | 0.00 | 0.00 | 1016.0 | |
| 20260902062402 | 80 | 262 | 0.0 | 1.7 | 0.00 | 0.00 | 0.00 | 1016.3 | |
| 20260902061903 | 80 | 202 | 0.0 | 3.5 | 0.00 | 0.00 | 0.00 | 1016.3 | |
| 20260902061403 | 80 | 222 | 0.0 | 5.2 | 0.00 | 0.00 | 0.00 | 1016.0 | |
| 20260902060903 | 81 | 246 | 0.0 | 5.2 | 0.00 | 0.00 | 0.00 | 1016.3 | |
| 20260902060424 | 81 | 267 | 0.0 | 5.2 | 0.00 | 0.00 | 0.00 | 1016.0 | |
| 20260902055903 | 81 | 211 | 0.0 | 5.2 | 0.00 | 0.00 | 0.00 | 1015.6 | |
| 20260902055403 | 81 | 248 | 0.9 | 3.5 | 0.00 | 0.00 | 0.00 | 1015.6 | |
| 20260902054903 | 81 | 205 | 0.0 | 5.2 | 0.00 | 0.00 | 0.00 | 1016.3 | |
| 20260902054424 | 81 | 113 | 0.0 | 5.2 | 0.00 | 0.00 | 0.00 | 1016.0 | |
| 20260902053902 | 81 | 246 | 0.0 | 3.5 | 0.00 | 0.00 | 0.00 | 1016.3 | |
| 20260902053403 | 81 | 165 | 0.0 | 5.2 | 0.00 | 0.00 | 0.00 | 1016.6 | |
| 20260902052902 | 81 | 179 | 0.0 | 5.2 | 0.00 | 0.00 | 0.00 | 1016.0 | |
| 20260902052424 | 81 | 178 | 0.0 | 5.2 | 0.00 | 0.00 | 0.00 | 1016.0 | |
| 20260902051902 | 81 | 208 | 0.0 | 5.2 | 0.00 | 0.00 | 0.00 | 1016.3 | |
| 20260902051403 | 81 | 227 | 0.0 | 5.2 | 0.00 | 0.00 | 0.00 | 1016.0 | |
| 20260902050902 | 81 | 221 | 0.0 | 5.2 | 0.00 | 0.00 | 0.00 | 1016.3 | |
| 20260902050403 | 81 | 221 | 0.0 | 3.5 | 0.00 | 0.00 | 0.00 | 1016.6 | |
| 20260902045924 | 81 | 199 | 0.0 | 4.3 | 0.00 | 0.00 | 0.00 | 1016.0 | |
| 20260902045403 | 81 | 202 | 0.0 | 4.3 | 0.00 | 0.00 | 0.00 | 1016.3 | |
| 20260902044903 | 81 | 197 | 0.0 | 3.5 | 0.00 | 0.00 | 0.00 | 1016.0 | |
| 20260902044403 | 81 | 207 | 0.0 | 5.2 | 0.00 | 0.00 | 0.00 | 1016.3 | |
| 20260902043903 | 81 | 203 | 0.0 | 5.2 | 0.00 | 0.00 | 0.00 | 1016.3 | |
| 20260902042403 | 82 | 206 | 0.0 | 5.2 | 0.00 | 0.00 | 0.00 | 1016.3 | |
| 20260902041903 | 82 | 207 | 0.0 | 5.2 | 0.00 | 0.00 | 0.00 | 1016.6 | |
| 20260902041403 | 82 | 202 | 0.0 | 4.3 | 0.00 | 0.00 | 0.00 | 1016.6 | |
| 20260902040902 | 82 | 220 | 0.0 | 2.6 | 0.00 | 0.00 | 0.00 | 1017.0 | |
| 20260902040424 | 82 | 199 | 0.0 | 3.5 | 0.00 | 0.00 | 0.00 | 1016.6 | |
| 20260902035903 | 82 | 196 | 0.0 | 3.5 | 0.00 | 0.00 | 0.00 | 1016.6 | |
| 20260902035431 | 82 | 205 | 0.0 | 2.6 | 0.00 | 0.00 | 0.00 | 1016.3 | |
| 20260902034924 | 82 | 211 | 0.0 | 2.6 | 0.00 | 0.00 | 0.00 | 1016.3 | |
| 20260902034402 | 82 | 202 | 0.0 | 2.6 | 0.00 | 0.00 | 0.00 | 1016.0 | |
| 20260902033924 | 82 | 202 | 0.0 | 5.2 | 0.00 | 0.00 | 0.00 | 1016.3 | |
| 20260902033403 | 82 | 202 | 0.9 | 5.2 | 0.00 | 0.00 | 0.00 | 1016.3 | |
| 20260902032903 | 83 | 248 | 0.0 | 3.5 | 0.00 | 0.00 | 0.00 | 1016.3 | |
| 20260902032403 | 83 | 315 | 0.0 | 3.5 | 0.00 | 0.00 | 0.00 | 1016.6 | |
| 20260902031903 | 83 | 225 | 0.0 | 5.2 | 0.00 | 0.00 | 0.00 | 1016.6 | |
| 20260902031402 | 83 | 213 | 0.0 | 5.2 | 0.00 | 0.00 | 0.00 | 1016.3 | |
| 20260902030903 | 83 | 213 | 0.0 | 2.6 | 0.00 | 0.00 | 0.00 | 1016.6 | |
| 20260902030403 | 83 | 206 | 0.0 | 4.3 | 0.00 | 0.00 | 0.00 | 1017.0 | |
| 20260902025903 | 83 | 212 | 0.0 | 4.3 | 0.00 | 0.00 | 0.00 | 1016.6 | |
| 20260902025403 | 83 | 202 | 0.0 | 5.2 | 0.00 | 0.00 | 0.00 | 1016.3 | |
| 20260902024903 | 83 | 205 | 0.9 | 5.2 | 0.00 | 0.00 | 0.00 | 1016.6 | |
| 20260902024403 | 84 | 205 | 0.0 | 5.2 | 0.00 | 0.00 | 0.00 | 1016.3 | |
| 20260902023903 | 84 | 201 | 0.0 | 5.2 | 0.00 | 0.00 | 0.00 | 1017.0 | |
| 20260902023403 | 84 | 187 | 0.0 | 5.2 | 0.00 | 0.00 | 0.00 | 1016.3 | |
| 20260902022902 | 84 | 202 | 0.0 | 5.2 | 0.00 | 0.00 | 0.00 | 1016.3 | |
| 20260902022403 | 84 | 180 | 0.0 | 2.6 | 0.00 | 0.00 | 0.00 | 1016.6 | |
| 20260902021903 | 84 | 202 | 0.0 | 2.6 | 0.00 | 0.00 | 0.00 | 1016.6 | |
| 20260902021402 | 84 | 173 | 0.0 | 2.6 | 0.00 | 0.00 | 0.00 | 1016.3 | |
| 20260902020903 | 84 | 224 | 0.0 | 2.6 | 0.00 | 0.00 | 0.00 | 1016.6 | |
| 20260902020403 | 84 | 216 | 0.0 | 2.6 | 0.00 | 0.00 | 0.00 | 1016.6 | |
| 20260902015903 | 84 | 158 | 0.0 | 5.2 | 0.00 | 0.00 | 0.00 | 1016.3 | |
| 20260902015425 | 84 | 224 | 0.0 | 5.2 | 0.00 | 0.00 | 0.00 | 1016.0 | |
| 20260902014903 | 84 | 221 | 0.0 | 5.2 | 0.00 | 0.00 | 0.00 | 1016.3 | |
| 20260902014403 | 84 | 210 | 0.0 | 2.6 | 0.00 | 0.00 | 0.00 | 1016.0 | |
| 20260902013924 | 85 | 198 | 0.0 | 0.0 | 0.00 | 0.00 | 0.00 | 1016.0 | |
| 20260902013403 | 85 | 225 | 0.0 | 0.9 | 0.00 | 0.00 | 0.00 | 1015.6 | |
| 20260902012903 | 85 | 235 | 0.0 | 0.9 | 0.00 | 0.00 | 0.00 | 1016.0 | |
| 20260902012403 | 85 | 248 | 0.0 | 0.9 | 0.00 | 0.00 | 0.00 | 1016.3 | |
| 20260902011903 | 85 | 248 | 0.0 | 0.0 | 0.00 | 0.00 | 0.00 | 1016.3 |